Location: Dillon
(41.1766°N, 107.0923°W)
Time: 11:06:20
(UTC+00:00)

SO-50 - Pass Details

Date: 09 July 2022
Orbit: 584 x 698 km, 64.6° (Epoch: 18 August)

Event Time Altitude Azimuth Distance (km) Brightness Sun altitude
Exits shadow 05:03:39 34° 193° (SSW) 1,077 ? -19.7°
Maximum altitude 05:05:36 69° 120° (ESE) 709 ? -19.9°
Drops below altitude 10° 05:10:24 10° 38° (NE) 2,119 ? -20.3°
Sets 05:12:46 0° 36° (NE) 3,052 ? -20.6°
